EW4576 Weather Reports


time (UTC)temp
C
wind
direction
speed
KPH
gust
KPH
rain 1hr
cm
rain 24hr
cm
rain mn
cm
humidity
%
barometer
mb
20260507150244 13 305 4.8 14.5 0.00 0.94 0.36 76 1015.8
20260507145937 13 16 3.2 9.7 0.00 0.91 0.36 78 1015.8
20260507144829 13 323 4.8 14.5 0.00 0.94 0.36 77 1015.8
20260507144333 13 310 3.2 16.1 0.00 0.94 0.36 76 1015.9
20260507143833 13 315 3.2 16.1 0.00 0.94 0.36 75 1015.9
20260507143329 13 341 3.2 11.3 0.00 0.99 0.36 76 1015.9
20260507142830 13 22 1.6 11.3 0.00 0.99 0.36 75 1015.9
20260507142331 13 292 1.6 11.3 0.00 1.07 0.36 76 1015.9
20260507141830 13 304 1.6 11.3 0.00 1.12 0.36 75 1015.9
20260507141627 13 347 1.6 9.7 0.00 1.17 0.36 80 1015.8
20260507141458 13 350 1.6 9.7 0.00 1.17 0.36 76 1015.8
20260507140326 13 0 1.6 9.7 0.00 1.17 0.36 79 1015.9
20260507135841 12 323 1.6 9.7 0.00 1.19 0.36 80 1015.9
20260507135325 12 5 3.2 9.7 0.00 1.19 0.36 81 1015.9
20260507135225 12 329 3.2 9.7 0.00 1.22 0.36 80 1016.0
20260507134320 12 327 3.2 9.7 0.00 1.22 0.36 80 1016.0
20260507133821 12 319 3.2 9.7 0.00 1.22 0.36 80 1015.9
20260507133321 12 9 3.2 12.9 0.00 1.22 0.36 79 1015.9
20260507132837 12 5 3.2 12.9 0.00 1.22 0.36 78 1016.0
20260507132321 12 355 1.6 12.9 0.00 1.22 0.36 79 1016.0
20260507131821 12 274 1.6 12.9 0.00 1.22 0.36 78 1016.0
20260507131741 13 336 1.6 9.7 0.00 1.22 0.36 78 1015.9
20260507130820 13 347 1.6 11.3 0.00 1.22 0.36 79 1015.9
20260507130321 13 355 1.6 11.3 0.00 1.22 0.36 78 1015.7
20260507125822 13 14 1.6 8.0 0.00 1.22 0.36 79 1015.8
20260507125323 12 9 3.2 8.0 0.00 1.22 0.36 81 1015.8
20260507124819 12 9 1.6 6.4 0.00 1.22 0.36 82 1015.7
20260507124322 11 0 1.6 6.4 0.00 1.22 0.36 83 1015.8
20260507123818 11 294 1.6 6.4 0.00 1.22 0.36 82 1015.8
20260507123320 11 13 0.0 8.0 0.00 1.22 0.36 82 1015.8
20260507122821 11 295 0.0 8.0 0.00 1.22 0.36 82 1015.8
20260507122319 11 298 1.6 8.0 0.00 1.22 0.36 83 1015.7
20260507122210 11 303 1.6 8.0 0.00 1.22 0.36 83 1015.8
20260507121648 12 79 1.6 8.0 0.00 1.22 0.36 84 1015.6
20260507121503 11 24 1.6 8.0 0.00 1.22 0.36 82 1015.7
20260507120314 11 355 1.6 8.0 0.00 1.22 0.36 83 1015.6
20260507115817 11 9 1.6 8.0 0.00 1.22 0.36 82 1015.6
20260507115709 11 350 0.0 4.8 0.00 1.22 0.36 83 1015.6
20260507115512 11 98 0.0 6.4 0.00 1.22 0.36 82 1015.6
20260507114308 11 194 0.0 6.4 0.00 1.22 0.36 84 1015.6
20260507113806 11 316 0.0 6.4 0.00 1.22 0.36 84 1015.7
20260507113308 11 316 0.0 0.0 0.00 1.22 0.36 86 1015.6
20260507113219 11 301 0.0 1.6 0.00 1.22 0.36 84 1015.6
20260507112306 11 300 0.0 9.7 0.00 1.22 0.36 84 1015.6
20260507111806 11 10 1.6 9.7 0.00 1.22 0.36 84 1015.7
20260507111303 11 5 3.2 9.7 0.00 1.22 0.36 84 1015.7
20260507110804 11 5 1.6 9.7 0.00 1.22 0.36 84 1015.7
20260507110745 11 5 1.6 9.7 0.00 1.22 0.36 84 1015.6
20260507110244 11 5 3.2 9.7 0.00 1.22 0.36 83 1015.6
20260507105302 11 332 3.2 9.7 0.00 1.22 0.36 83 1015.6
20260507104804 11 24 1.6 11.3 0.00 1.22 0.36 82 1015.6
20260507104711 11 343 1.6 11.3 0.00 1.22 0.36 83 1015.6
20260507103800 11 11 3.2 11.3 0.00 1.22 0.36 83 1015.6
20260507103259 11 342 3.2 11.3 0.00 1.22 0.36 84 1015.6
20260507102830 12 0 1.6 11.3 0.00 1.22 0.36 82 1015.5
20260507102806 11 344 3.2 11.3 0.00 1.22 0.36 83 1015.5
20260507101809 12 24 3.2 14.5 0.00 1.22 0.36 81 1015.4
20260507101259 12 9 3.2 14.5 0.00 1.22 0.36 79 1015.4
20260507100759 12 246 1.6 12.9 0.00 1.22 0.36 78 1015.4
20260507100301 12 102 0.0 9.7 0.00 1.22 0.36 82 1015.4
20260507100255 12 19 1.6 9.7 0.00 1.22 0.36 82 1015.3
20260507095255 12 318 0.0 8.0 0.00 1.22 0.36 84 1015.4
20260507094752 11 175 0.0 8.0 0.00 1.22 0.36 84 1015.3
20260507094251 11 98 0.0 4.8 0.00 1.22 0.36 86 1015.3
20260507093757 11 64 0.0 4.8 0.00 1.22 0.36 86 1015.2
20260507093253 11 123 0.0 6.4 0.00 1.22 0.36 86 1015.2
20260507092751 11 17 0.0 6.4 0.00 1.22 0.36 85 1015.2
20260507092247 11 215 0.0 4.8 0.00 1.22 0.36 86 1015.2
20260507091740 11 312 0.0 3.2 0.00 1.22 0.36 87 1015.2
20260507091237 11 313 0.0 6.4 0.00 1.22 0.36 87 1015.1
20260507090736 11 183 0.0 6.4 0.00 1.22 0.36 88 1014.9
20260507090237 11 129 0.0 8.0 0.00 1.22 0.36 88 1014.9
20260507085736 11 213 0.0 8.0 0.00 1.22 0.36 89 1014.7
20260507085231 11 288 0.0 3.2 0.00 1.22 0.36 92 1014.7
20260507084732 11 348 0.0 3.2 0.00 1.22 0.36 92 1014.7
20260507084238 10 13 0.0 1.6 0.00 1.22 0.36 93 1014.7
20260507083734 10 13 0.0 9.7 0.03 1.22 0.36 94 1014.7
20260507083231 10 15 0.0 9.7 0.03 1.22 0.36 93 1014.6
20260507082732 10 313 0.0 4.8 0.03 1.22 0.36 94 1014.6
20260507082233 10 180 0.0 4.8 0.03 1.22 0.36 95 1014.6
20260507081732 10 175 0.0 4.8 0.05 1.22 0.36 96 1014.6
20260507081231 10 19 0.0 4.8 0.05 1.22 0.36 95 1014.5
20260507080733 9 302 0.0 4.8 0.05 1.22 0.36 95 1014.5
20260507080237 9 328 0.0 4.8 0.05 1.22 0.36 95 1014.5
20260507075728 9 10 0.0 0.0 0.05 1.22 0.33 96 1014.4
20260507075226 9 5 0.0 1.6 0.05 1.22 0.33 96 1014.4
20260507074725 9 5 0.0 1.6 0.05 1.22 0.33 96 1014.4
20260507074224 9 355 0.0 0.0 0.05 1.22 0.33 96 1014.3
20260507073722 9 351 0.0 0.0 0.03 1.19 0.33 96 1014.3
20260507073219 9 351 0.0 0.0 0.03 1.19 0.33 96 1014.2
20260507072718 9 351 0.0 0.0 0.03 1.19 0.33 96 1014.2
20260507072611 9 12 0.0 0.0 0.03 1.19 0.33 96 1014.1
20260507071722 9 12 0.0 0.0 0.00 1.17 0.33 95 1014.1
20260507071214 9 12 0.0 1.6 0.00 1.17 0.33 96 1014.0
20260507070716 9 12 0.0 1.6 0.03 1.17 0.33 96 1013.9
20260507070215 9 344 0.0 1.6 0.03 1.17 0.33 96 1013.9
20260507065716 9 344 0.0 0.0 0.03 1.17 0.30 96 1013.8
20260507065211 9 341 0.0 0.0 0.03 1.17 0.30 96 1013.7
20260507064713 9 344 0.0 0.0 0.03 1.17 0.30 96 1013.7
20260507064217 9 333 0.0 6.4 0.03 1.17 0.30 96 1013.7
20260507063713 8 332 0.0 6.4 0.03 1.17 0.30 95 1013.6
20260507063210 8 316 0.0 6.4 0.05 1.17 0.30 96 1013.6
20260507063108 8 309 0.0 6.4 0.05 1.17 0.30 96 1013.6
20260507062212 9 355 0.0 6.4 0.05 1.17 0.30 96 1013.6
20260507062004 9 325 0.0 4.8 0.05 1.17 0.30 96 1013.6
20260507061847 9 325 0.0 1.6 0.05 1.17 0.30 96 1013.5
20260507061103 8 325 0.0 4.8 0.05 1.17 0.30 96 1013.5
20260507060213 9 9 0.0 0.0 0.05 1.17 0.30 96 1013.4
20260507055713 9 13 0.0 1.6 0.05 1.17 0.23 96 1013.3
20260507055210 8 16 0.0 1.6 0.08 1.17 0.23 96 1013.3
20260507055102 9 349 0.0 1.6 0.08 1.17 0.23 96 1013.2
20260507054213 8 13 0.0 6.4 0.08 1.17 0.23 96 1013.1
20260507053710 8 13 0.0 6.4 0.08 1.17 0.23 95 1013.1
20260507053212 8 355 0.0 0.0 0.05 1.14 0.23 96 1013.0
20260507052708 8 355 0.0 0.0 0.05 1.14 0.23 96 1013.0
20260507052204 8 355 0.0 0.0 0.08 1.14 0.23 95 1013.0
20260507051703 9 355 0.0 0.0 0.05 1.12 0.23 95 1012.9
20260507051205 9 355 0.0 0.0 0.05 1.12 0.23 95 1012.8
20260507050705 9 339 0.0 0.0 0.05 1.12 0.23 95 1012.7
20260507050203 9 339 0.0 4.8 0.05 1.09 0.23 95 1012.7
20260507045708 9 339 0.0 4.8 0.05 1.09 0.20 95 1012.6
20260507045204 9 325 0.0 0.0 0.03 1.09 0.20 95 1012.5
20260507044703 9 325 0.0 0.0 0.03 1.09 0.20 95 1012.5
20260507044157 9 101 0.0 1.6 0.03 1.09 0.20 95 1012.4
20260507043655 9 105 0.0 1.6 0.03 1.09 0.20 95 1012.3
20260507043141 9 121 0.0 0.0 0.05 1.09 0.20 95 1012.2
20260507042642 9 121 0.0 0.0 0.05 1.09 0.20 95 1012.1
20260507042141 9 121 0.0 0.0 0.03 1.07 0.20 95 1012.1
20260507041643 9 124 0.0 0.0 0.03 1.07 0.20 95 1012.0
20260507041140 9 124 0.0 0.0 0.05 1.07 0.20 95 1012.0
20260507041055 9 236 0.0 1.6 0.05 1.07 0.20 95 1011.9
20260507040140 9 217 0.0 1.6 0.05 1.07 0.20 95 1011.9
20260507035635 9 0 0.0 1.6 0.05 1.07 0.15 95 1011.8
20260507035133 9 5 0.0 1.6 0.05 1.07 0.15 95 1011.8
20260507034633 9 343 0.0 1.6 0.05 1.07 0.15 95 1011.7
20260507034132 9 323 0.0 0.0 0.05 1.07 0.15 95 1011.7
20260507034038 9 325 0.0 0.0 0.05 1.07 0.15 95 1011.6
20260507033132 9 73 0.0 3.2 0.05 1.04 0.15 95 1011.6
20260507032630 9 9 0.0 3.2 0.05 1.07 0.15 95 1011.6
20260507032137 10 308 0.0 0.0 0.05 1.07 0.15 95 1011.5
20260507032051 10 308 0.0 0.0 0.05 1.07 0.15 95 1011.5
20260507031132 10 308 0.0 1.6 0.05 1.04 0.15 94 1011.5
20260507030630 10 310 0.0 6.4 0.05 1.04 0.15 94 1011.4
20260507030516 10 13 0.0 6.4 0.05 1.04 0.15 94 1011.4
20260507025636 10 25 0.0 6.4 0.05 1.04 0.13 93 1011.3
20260507025129 10 43 0.0 12.9 0.03 1.02 0.13 93 1011.2
20260507025016 10 292 0.0 12.9 0.03 1.02 0.13 93 1011.2
20260507024112 10 196 0.0 4.8 0.03 1.02 0.13 94 1011.1
20260507023911 10 165 0.0 3.2 0.03 1.02 0.13 94 1011.1
20260507023745 10 175 0.0 4.8 0.03 1.02 0.13 93 1011.1
20260507022619 10 229 0.0 3.2 0.03 1.02 0.13 94 1011.0
20260507022110 10 183 0.0 3.2 0.03 0.99 0.13 94 1011.0
20260507021609 10 218 0.0 1.6 0.03 0.99 0.13 95 1010.9
20260507021459 10 218 0.0 1.6 0.03 0.99 0.13 95 1011.0
20260507020606 10 286 0.0 0.0 0.03 0.99 0.13 95 1010.9
20260507020111 10 286 0.0 0.0 0.05 0.99 0.13 95 1010.9
20260507015604 10 286 0.0 0.0 0.05 0.99 0.08 95 1010.7
20260507015112 10 286 0.0 0.0 0.05 0.99 0.08 95 1010.7
20260507014614 10 286 0.0 0.0 0.05 0.99 0.08 95 1010.6
20260507014103 10 286 0.0 0.0 0.05 0.99 0.08 95 1010.6
20260507013602 10 286 0.0 0.0 0.05 0.99 0.08 95 1010.6
20260507013103 10 286 0.0 0.0 0.05 0.99 0.08 95 1010.6
20260507012600 10 286 0.0 0.0 0.05 0.99 0.08 95 1010.5
20260507012110 10 286 0.0 0.0 0.05 0.99 0.08 95 1010.5
20260507011547 10 286 0.0 0.0 0.05 0.99 0.08 95 1010.5
20260507011048 10 286 0.0 0.0 0.05 0.99 0.08 95 1010.5
20260507010544 10 286 0.0 0.0 0.05 0.99 0.08 95 1010.5
20260507010044 10 286 0.0 0.0 0.03 0.97 0.08 95 1010.5
20260507005941 10 286 0.0 0.0 0.03 0.97 0.05 95 1010.4
20260507005054 10 286 0.0 0.0 0.05 0.97 0.05 94 1010.4
20260507004543 10 286 0.0 0.0 0.05 0.97 0.05 94 1010.4
20260507004046 10 286 0.0 0.0 0.03 0.94 0.05 94 1010.4
20260507003541 10 286 0.0 0.0 0.05 0.94 0.05 94 1010.5
20260507003041 10 286 0.0 0.0 0.05 0.94 0.05 93 1010.4
20260507002932 10 286 0.0 0.0 0.05 0.94 0.05 93 1010.4
20260507002433 10 286 0.0 0.0 0.05 0.94 0.05 94 1010.4
20260507002040 10 286 0.0 0.0 0.05 0.94 0.05 93 1010.4
20260507001045 10 286 0.0 0.0 0.05 0.94 0.05 94 1010.3
20260507000537 10 286 0.0 0.0 0.05 0.94 0.05 93 1010.4
20260507000454 10 286 0.0 0.0 0.05 0.94 0.05 93 1010.4
20260506235531 10 286 0.0 1.6 0.05 0.94 0.03 93 1010.4
20260506235412 10 286 0.0 1.6 0.03 0.91 0.03 93 1010.4
20260506234532 10 292 0.0 0.0 0.03 0.91 0.03 92 1010.4
20260506234320 10 198 0.0 1.6 0.03 0.89 0.03 92 1010.4
20260506234211 10 292 0.0 0.0 0.05 0.91 0.03 92 1010.5
20260506233032 10 204 0.0 4.8 0.03 0.89 0.03 92 1010.5
20260506232532 10 187 0.0 4.8 0.03 0.89 0.03 91 1010.5
20260506232035 10 224 0.0 1.6 0.03 0.89 0.03 91 1010.6
20260506232021 10 267 0.0 1.6 0.03 0.89 0.03 92 1010.5
20260506231032 10 176 0.0 1.6 0.03 0.89 0.03 92 1010.4
20260506230954 10 176 0.0 1.6 0.03 0.89 0.03 92 1010.5
20260506230033 10 355 0.0 0.0 0.03 0.89 0.03 92 1010.4
20260506225955 10 172 0.0 1.6 0.03 0.89 0.00 92 1010.5
20260506225032 10 172 0.0 1.6 0.03 0.89 0.00 92 1010.4
20260506225026 10 172 0.0 1.6 0.03 0.89 0.00 92 1010.4
20260506224455 10 171 0.0 1.6 0.00 0.89 0.00 92 1010.4
20260506223534 10 169 0.0 1.6 0.00 0.89 0.00 92 1010.3
20260506223031 10 178 0.0 1.6 0.00 0.89 0.00 92 1010.3
20260506222534 10 128 0.0 3.2 0.00 0.89 0.00 91 1010.2
20260506222149 10 173 0.0 9.7 0.00 0.89 0.00 91 1010.0
20260506222050 10 146 0.0 3.2 0.00 0.89 0.00 91 1010.2
20260506221137 10 343 0.0 9.7 0.03 0.89 0.00 91 1010.0
20260506221126 10 126 0.0 9.7 0.03 0.89 0.86 91 1009.9
20260506221035 10 182 0.0 9.7 0.00 0.89 0.00 91 1010.0
20260506215458 10 189 0.0 1.6 0.05 0.89 0.86 91 1009.9
20260506215039 10 348 0.0 8.0 0.05 0.89 0.86 91 1009.8
20260506215009 10 22 0.0 3.2 0.05 0.89 0.86 91 1009.8
20260506213955 11 207 0.0 9.7 0.08 0.89 0.86 91 1009.8
20260506213449 11 312 0.0 9.7 0.10 0.89 0.86 92 1009.7
20260506213001 11 44 0.0 1.6 0.13 0.89 0.86 93 1009.7
20260506212523 11 170 0.0 8.0 0.18 0.89 0.86 93 1009.7
20260506212501 11 200 0.0 1.6 0.15 0.89 0.86 93 1009.7
20260506211515 11 207 0.0 9.7 0.23 0.89 0.86 93 1009.6
20260506211457 11 192 0.0 9.7 0.20 0.89 0.86 93 1009.6
20260506210453 11 215 0.0 6.4 0.23 0.86 0.86 93 1009.5
20260506205946 11 151 0.0 6.4 0.25 0.86 0.61 93 1009.5
20260506205444 11 175 0.0 6.4 0.28 0.84 0.61 93 1009.5
20260506204937 11 175 0.0 9.7 0.28 0.81 0.61 93 1009.6
20260506204440 11 163 0.0 9.7 0.28 0.81 0.61 94 1009.6
20260506203956 11 207 0.0 9.7 0.28 0.79 0.61 94 1009.6
20260506203437 11 157 1.6 9.7 0.25 0.79 0.61 94 1009.5
20260506202933 11 181 0.0 6.4 0.25 0.76 0.61 94 1009.5
20260506202432 11 139 0.0 6.4 0.23 0.71 0.61 94 1009.5
20260506202337 11 190 0.0 1.6 0.23 0.71 0.61 94 1009.5
20260506201429 11 193 0.0 1.6 0.20 0.69 0.61 94 1009.5
20260506200930 11 172 0.0 8.0 0.20 0.66 0.61 93 1009.4
20260506200430 11 184 0.0 8.0 0.15 0.61 0.61 93 1009.4
20260506195933 11 212 0.0 6.4 0.15 0.61 0.43 94 1009.4
20260506195428 11 217 0.0 6.4 0.13 0.56 0.43 94 1009.4
20260506195338 11 186 0.0 4.8 0.13 0.53 0.43 93 1009.3
20260506194426 11 190 0.0 4.8 0.13 0.53 0.43 93 1009.2
20260506193924 11 167 0.0 6.4 0.13 0.51 0.43 93 1009.2
20260506193422 11 181 0.0 6.4 0.13 0.51 0.43 93 1009.0
20260506192918 11 192 0.0 8.0 0.10 0.51 0.43 93 1009.0
20260506192853 11 192 0.0 8.0 0.10 0.51 0.43 93 1008.9
20260506191928 11 188 0.0 1.6 0.08 0.48 0.43 93 1008.8
20260506191421 11 152 0.0 1.6 0.10 0.48 0.43 93 1008.7
20260506190921 12 148 0.0 1.6 0.08 0.46 0.43 93 1008.6
20260506190420 12 146 0.0 9.7 0.08 0.46 0.43 93 1008.6
20260506185921 12 146 0.0 9.7 0.05 0.43 0.38 93 1008.5
20260506185417 12 329 0.0 4.8 0.05 0.43 0.38 93 1008.5
20260506184918 12 350 0.0 4.8 0.05 0.43 0.38 92 1008.4
20260506184420 12 169 0.0 4.8 0.05 0.43 0.38 92 1008.3
20260506183912 12 155 0.0 3.2 0.03 0.41 0.38 92 1008.2
20260506183411 12 171 0.0 3.2 0.03 0.41 0.38 92 1008.1
20260506182908 12 241 0.0 6.4 0.03 0.41 0.38 92 1008.1
20260506182745 12 173 0.0 6.4 0.03 0.41 0.38 92 1008.0
20260506181905 12 175 0.0 4.8 0.03 0.41 0.38 92 1008.0
20260506181820 12 196 0.0 1.6 0.00 0.41 0.38 92 1007.9
20260506180904 12 201 0.0 1.6 0.00 0.41 0.38 92 1008.0
20260506180403 12 201 0.0 6.4 0.00 0.41 0.38 91 1007.9
20260506175912 12 161 0.0 6.4 0.00 0.41 0.38 92 1007.9
20260506175410 12 186 0.0 6.4 0.00 0.41 0.38 91 1007.9
20260506174905 12 188 0.0 6.4 0.00 0.43 0.38 91 1007.8
20260506174415 12 190 0.0 1.6 0.00 0.43 0.38 92 1007.7
20260506173902 12 190 0.0 1.6 0.00 0.43 0.38 92 1007.7
20260506173826 12 189 0.0 0.0 0.00 0.46 0.38 92 1007.7
20260506172902 12 190 0.0 1.6 0.03 0.48 0.38 92 1007.7
20260506172401 12 200 0.0 1.6 0.03 0.48 0.38 92 1007.7
20260506172256 12 201 0.0 1.6 0.03 0.48 0.38 93 1007.7
20260506171413 12 229 0.0 1.6 0.03 0.48 0.38 93 1007.7
20260506171341 12 229 0.0 0.0 0.03 0.48 0.36 93 1007.7
20260506171331 12 229 0.0 0.0 0.03 0.48 0.38 93 1007.6
20260506170909 12 229 0.0 0.0 0.03 0.48 0.38 93 1007.7
20260506165402 12 306 0.0 0.0 0.03 0.48 0.36 93 1007.6
20260506164901 12 306 0.0 4.8 0.03 0.48 0.36 93 1007.7
20260506164406 12 306 0.0 4.8 0.03 0.48 0.36 93 1007.7
20260506163902 12 306 0.0 4.8 0.03 0.48 0.36 93 1007.6
20260506163402 12 313 0.0 4.8 0.03 0.48 0.36 93 1007.7
20260506162902 12 51 0.0 1.6 0.00 0.46 0.36 93 1007.7
20260506162402 12 185 0.0 0.0 0.00 0.46 0.36 93 1007.7
20260506162312 12 254 0.0 1.6 0.03 0.46 0.36 93 1007.7
20260506161403 12 210 0.0 1.6 0.03 0.46 0.36 93 1007.7
20260506160904 12 313 0.0 3.2 0.03 0.46 0.36 93 1007.7
20260506160403 12 198 0.0 3.2 0.05 0.46 0.36 93 1007.7
20260506155903 12 126 0.0 4.8 0.05 0.46 0.33 93 1007.6
20260506155402 12 307 0.0 4.8 0.05 0.46 0.33 93 1007.6
20260506154905 12 325 0.0 3.2 0.05 0.46 0.33 93 1007.6
20260506154402 12 67 0.0 1.6 0.05 0.46 0.33 93 1007.6
20260506153903 12 111 0.0 1.6 0.05 0.46 0.33 94 1007.5
20260506153406 12 13 0.0 1.6 0.10 0.46 0.33 94 1007.5
20260506152902 12 355 0.0 1.6 0.13 0.46 0.33 94 1007.4
20260506152401 12 315 0.0 1.6 0.15 0.46 0.33 94 1007.3
20260506151901 12 17 0.0 6.4 0.23 0.43 0.33 94 1007.3
20260506151411 12 321 0.0 6.4 0.25 0.43 0.33 93 1007.3
20260506151402 12 322 0.0 6.4 0.25 0.43 0.33 94 1007.3